"Pseudo-MPEC" for A108Z7t

Created 2018 Oct 22 17:18:02 UT using Find_Orb

Click here for an explanation of pseudo-MPECs

 
 Astrometry: 
     A108Z7t  C2018 10 03i0Astrometry;979N,e!@cRo7l\DTNg(we^p^-EW[hhP[Yi0?Te_T05
     A108Z7t  C2018 10 03q=.cdjasN!p:_@Rl?redacted;/M.wXCsee0G-OVMhMjwj.AR'n(T05
     A108Z7t  C2018 10 03dtA+L3J\:23r0Dt=M*j15mwhTX]4:!/[`[Heqcw+5a)cY0mNEOCPT05
     A108Z7t  C2018 10 05.16960 00 30 48.17 -19 52 58.4          21.0 GVNEOCPI52
     A108Z7t  C2018 10 05.16978 00 30 48.04 -19 53 03.2          19.5 GVNEOCPI52
     A108Z7t  C2018 10 05.16996 00 30 47.98 -19 53 05.5          20.5 GVNEOCPI52

Station data:
(I52) Steward Observatory, Mt. Lemmon Station  (N32.442547 W110.788920)
   US/Arizona.  Observers B. M. Africano, E. J. Christensen, D. C. Fuls, A.
   R. Gibbs, A. D. Grauer, J. A. Johnson, R. A. Kowalski, S. M. Larson, G. J.
   Leonard, R. L. Seaman, F. C. Shelly. 1.0-m reflector + CCD.
(T05) ATLAS-HKO, Haleakala  (N20.707573 W156.257010)  US/Hawaii.  Observers
   L. Denneau, A. Heinze, H. Weiland, B. Stalder, J. Tonry, A. Sherstyuk.
   Measurers L. Denneau, A. Heinze, J. Tonry. 0.5-m f/2.0 Schmidt + CCD.

Orbital elements:  A108Z7t
   Perihelion 2018 Jun 26.709560 +/- 0.242 TT = 17:01:46 (JD 2458296.209560)
Epoch 2018 Oct  5.0 TT = JDT 2458396.5   Earth MOID: 0.0038   Ve: 0.0007
M 116.12272 +/- 0.23                (J2000 ecliptic)          AutoNEOCP
n   1.15786437 +/- 0.000533         Peri.   46.08656 +/- 0.08
a   0.89818180 +/- 0.000275         Node   189.72414 +/- 0.00053
e   0.2149193 +/- 0.00142           Incl.    8.94398 +/- 0.06
P   0.85/310.91d           H 28.1   G  0.15   U  7.7  
q 0.70514511 +/- 0.00147    Q 1.09121849 +/- 0.000989
From 6 observations 2018 Oct. 3-5 (40.1 hr); mean residual 0".39
Residuals in arcseconds: 
181003 T05  .18+  .03+    181003 T05  .18+  .04+    181005 I52  .33-  .83-    
181003 T05  .36-  .07-    181005 I52  .08-  .05+    181005 I52  .41+  .79+    

Ephemerides (geocentric):
Date (UTC) HH   RA              Dec         delta   r     elong  mag " sig PA
---- -- -- --  -------------   -----------  ------ ------ -----  --- ---- ---
2018 10 22 17  00 11 03.243   -33 54 44.32  .08910 1.0540 129.4 24.7 22.7  37
2018 10 22 18  00 11 03.650   -33 54 42.09  .08928 1.0540 129.4 24.7 22.7  37
2018 10 22 19  00 11 04.062   -33 54 39.75  .08946 1.0541 129.4 24.7 22.7  37
2018 10 22 20  00 11 04.478   -33 54 37.29  .08965 1.0542 129.4 24.7 22.7  37
2018 10 22 21  00 11 04.899   -33 54 34.73  .08983 1.0543 129.3 24.7 22.7  37
2018 10 22 22  00 11 05.324   -33 54 32.05  .09001 1.0544 129.3 24.7 22.7  37
2018 10 22 23  00 11 05.753   -33 54 29.26  .09020 1.0544 129.3 24.7 22.7  37
2018 10 23 00  00 11 06.187   -33 54 26.36  .09038 1.0545 129.2 24.7 22.7  37
2018 10 23 01  00 11 06.625   -33 54 23.35  .09057 1.0546 129.2 24.7 22.7  37
2018 10 23 02  00 11 07.068   -33 54 20.24  .09075 1.0547 129.2 24.7 22.7  37
2018 10 23 03  00 11 07.514   -33 54 17.01  .09093 1.0548 129.2 24.8 22.7  37
2018 10 23 04  00 11 07.965   -33 54 13.68  .09112 1.0549 129.1 24.8 22.7  37
2018 10 23 05  00 11 08.420   -33 54 10.23  .09130 1.0549 129.1 24.8 22.7  37
2018 10 23 06  00 11 08.880   -33 54 06.69  .09148 1.0550 129.1 24.8 22.7  37
2018 10 23 07  00 11 09.344   -33 54 03.03  .09167 1.0551 129.0 24.8 22.7  37
2018 10 23 08  00 11 09.812   -33 53 59.27  .09185 1.0552 129.0 24.8 22.7  37
2018 10 23 09  00 11 10.284   -33 53 55.40  .09204 1.0553 129.0 24.8 22.7  37
2018 10 23 10  00 11 10.760   -33 53 51.43  .09222 1.0553 129.0 24.8 22.7  37
2018 10 23 11  00 11 11.241   -33 53 47.35  .09240 1.0554 128.9 24.8 22.7  37
2018 10 23 12  00 11 11.726   -33 53 43.17  .09259 1.0555 128.9 24.8 22.7  37
2018 10 23 13  00 11 12.215   -33 53 38.89  .09277 1.0556 128.9 24.8 22.7  37
2018 10 23 14  00 11 12.708   -33 53 34.50  .09295 1.0556 128.8 24.8 22.7  37
2018 10 23 15  00 11 13.205   -33 53 30.00  .09314 1.0557 128.8 24.8 22.6  37
2018 10 23 16  00 11 13.707   -33 53 25.41  .09332 1.0558 128.8 24.8 22.6  37
2018 10 23 17  00 11 14.212   -33 53 20.71  .09351 1.0559 128.8 24.8 22.6  37
2018 10 23 18  00 11 14.722   -33 53 15.92  .09369 1.0560 128.7 24.8 22.6  37
2018 10 23 19  00 11 15.235   -33 53 11.02  .09387 1.0560 128.7 24.8 22.6  37
2018 10 23 20  00 11 15.753   -33 53 06.02  .09406 1.0561 128.7 24.8 22.6  37
2018 10 23 21  00 11 16.275   -33 53 00.92  .09424 1.0562 128.6 24.8 22.6  37
2018 10 23 22  00 11 16.801   -33 52 55.72  .09443 1.0563 128.6 24.8 22.6  37
2018 10 23 23  00 11 17.331   -33 52 50.42  .09461 1.0564 128.6 24.9 22.6  37
2018 10 24 00  00 11 17.865   -33 52 45.02  .09479 1.0564 128.6 24.9 22.6  37
2018 10 24 01  00 11 18.403   -33 52 39.52  .09498 1.0565 128.5 24.9 22.6  37
2018 10 24 02  00 11 18.945   -33 52 33.93  .09516 1.0566 128.5 24.9 22.6  37
2018 10 24 03  00 11 19.491   -33 52 28.24  .09535 1.0567 128.5 24.9 22.6  37
2018 10 24 04  00 11 20.041   -33 52 22.45  .09553 1.0568 128.4 24.9 22.6  37
2018 10 24 05  00 11 20.595   -33 52 16.56  .09571 1.0568 128.4 24.9 22.6  37
2018 10 24 06  00 11 21.153   -33 52 10.57  .09590 1.0569 128.4 24.9 22.6  37
2018 10 24 07  00 11 21.715   -33 52 04.49  .09608 1.0570 128.4 24.9 22.6  37
2018 10 24 08  00 11 22.281   -33 51 58.32  .09627 1.0571 128.3 24.9 22.6  37
2018 10 24 09  00 11 22.851   -33 51 52.05  .09645 1.0571 128.3 24.9 22.6  37
2018 10 24 10  00 11 23.425   -33 51 45.68  .09663 1.0572 128.3 24.9 22.6  37
2018 10 24 11  00 11 24.002   -33 51 39.22  .09682 1.0573 128.2 24.9 22.6  37
2018 10 24 12  00 11 24.584   -33 51 32.67  .09700 1.0574 128.2 24.9 22.6  37
2018 10 24 13  00 11 25.170   -33 51 26.02  .09719 1.0575 128.2 24.9 22.6  37
2018 10 24 14  00 11 25.759   -33 51 19.28  .09737 1.0575 128.2 24.9 22.6  37
2018 10 24 15  00 11 26.352   -33 51 12.44  .09755 1.0576 128.1 24.9 22.6  37
2018 10 24 16  00 11 26.949   -33 51 05.51  .09774 1.0577 128.1 24.9 22.6  37